Location: Dürabuch
(48.2640°N, 11.2185°E)
Time: 10:26:51
(UTC+00:00)

Cosmos 1953 - Pass Details

Date: 23 May 2024
Orbit: 510 x 531 km, 82.5° (Epoch: 15 June)

Event Time Altitude Azimuth Distance (km) Brightness Sun altitude
Rises 00:57:45 0° 345° (NNW) 2,687 6.6 -17.1°
Reaches altitude 10° 00:59:57 10° 341° (NNW) 1,788 5.5 -17.0°
Maximum altitude 01:03:45 50° 266° (W) 680 2.5 -16.7°
Enters shadow 01:04:56 36° 215° (SW) 851 2.7 -16.6°
